| time (UTC) | temp F | wind direction | speed knots | gust knots | rain 1hr in | rain 24hr in | rain mn in | humidity % | barometer mb |
| 20260507072702 | 52 | 20 | 1.7 | 3.5 | 0.00 | 0.00 | 0.00 | 85 | 1017.3 |
| 20260507072203 | 52 | 30 | 1.7 | 3.5 | 0.00 | 0.00 | 0.00 | 84 | 1017.1 |
| 20260507071703 | 52 | 0 | 1.7 | 3.5 | 0.00 | 0.00 | 0.00 | 84 | 1017.1 |
| 20260507071202 | 52 | 354 | 1.7 | 2.6 | 0.00 | 0.00 | 0.00 | 83 | 1017.1 |
| 20260507070703 | 52 | 37 | 0.0 | 0.9 | 0.00 | 0.00 | 0.00 | 83 | 1017.1 |
| 20260507070155 | 53 | 37 | 0.0 | 0.9 | 0.00 | 0.00 | 0.00 | 83 | 1017.2 |
| 20260507065652 | 53 | 37 | 0.0 | 0.9 | 0.00 | 0.00 | 0.00 | 83 | 1017.2 |
| 20260507065152 | 53 | 37 | 0.0 | 0.0 | 0.00 | 0.00 | 0.00 | 83 | 1017.2 |
| 20260507064652 | 53 | 18 | 0.0 | 0.9 | 0.00 | 0.00 | 0.00 | 82 | 1017.2 |
| 20260507064138 | 53 | 18 | 0.0 | 2.6 | 0.00 | 0.00 | 0.00 | 82 | 1017.2 |
| 20260507063932 | 53 | 18 | 0.0 | 2.6 | 0.00 | 0.00 | 0.00 | 82 | 1017.1 |
| 20260507063425 | 53 | 18 | 0.9 | 3.5 | 0.00 | 0.00 | 0.00 | 82 | 1016.7 |
| 20260507062632 | 0 | 18 | 1.7 | 3.5 | 0.00 | 0.00 | 0.00 | 1016.6 | |
| 20260507062133 | 53 | 30 | 1.7 | 4.3 | 0.00 | 0.00 | 0.00 | 81 | 1016.6 |
| 20260507061853 | 53 | 30 | 1.7 | 4.3 | 0.00 | 0.00 | 0.00 | 81 | 1016.5 |
| 20260507061131 | 53 | 32 | 1.7 | 3.5 | 0.00 | 0.00 | 0.00 | 81 | 1016.4 |
| 20260507060632 | 54 | 20 | 1.7 | 4.3 | 0.00 | 0.00 | 0.00 | 81 | 1016.4 |
| 20260507060105 | 54 | 31 | 2.6 | 4.3 | 0.00 | 0.00 | 0.00 | 80 | 1016.4 |
| 20260507055634 | 54 | 39 | 2.6 | 4.3 | 0.00 | 0.00 | 0.00 | 80 | 1016.2 |
| 20260507054601 | 54 | 75 | 2.6 | 4.3 | 0.00 | 0.00 | 0.00 | 79 | 1016.1 |
| 20260507054102 | 54 | 59 | 2.6 | 4.3 | 0.00 | 0.00 | 0.00 | 79 | 1016.1 |
| 20260507053603 | 54 | 76 | 2.6 | 5.2 | 0.00 | 0.00 | 0.00 | 79 | 1016.1 |
| 20260507053101 | 54 | 62 | 1.7 | 6.1 | 0.00 | 0.00 | 0.00 | 79 | 1016.0 |
| 20260507052601 | 55 | 65 | 3.5 | 6.1 | 0.00 | 0.00 | 0.00 | 79 | 1015.9 |
| 20260507052101 | 55 | 63 | 3.5 | 6.1 | 0.00 | 0.00 | 0.00 | 79 | 1015.9 |
| 20260507051604 | 55 | 85 | 4.3 | 9.6 | 0.00 | 0.00 | 0.00 | 79 | 1015.7 |
| 20260507051101 | 55 | 61 | 4.3 | 9.6 | 0.00 | 0.00 | 0.00 | 79 | 1015.6 |
| 20260507050601 | 55 | 68 | 4.3 | 8.7 | 0.00 | 0.00 | 0.00 | 79 | 1015.6 |
| 20260507050100 | 55 | 54 | 4.3 | 8.7 | 0.00 | 0.00 | 0.00 | 79 | 1015.5 |
| 20260507045601 | 55 | 54 | 5.2 | 8.7 | 0.00 | 0.00 | 0.00 | 78 | 1015.4 |
| 20260507045100 | 55 | 68 | 0.9 | 5.2 | 0.00 | 0.00 | 0.00 | 78 | 1015.3 |
| 20260507044601 | 55 | 89 | 1.7 | 6.1 | 0.00 | 0.00 | 0.00 | 78 | 1015.3 |
| 20260507044358 | 55 | 59 | 3.5 | 6.1 | 0.00 | 0.00 | 0.00 | 78 | 1015.2 |
| 20260507043600 | 55 | 68 | 3.5 | 5.2 | 0.00 | 0.00 | 0.00 | 78 | 1015.0 |
| 20260507043100 | 55 | 79 | 3.5 | 5.2 | 0.00 | 0.00 | 0.00 | 78 | 1015.2 |
| 20260507042601 | 55 | 51 | 3.5 | 5.2 | 0.00 | 0.00 | 0.00 | 77 | 1015.1 |
| 20260507042059 | 55 | 52 | 1.7 | 4.3 | 0.00 | 0.00 | 0.00 | 77 | 1015.2 |
| 20260507041559 | 55 | 49 | 2.6 | 4.3 | 0.00 | 0.00 | 0.00 | 77 | 1015.1 |
| 20260507041102 | 55 | 52 | 1.7 | 5.2 | 0.00 | 0.00 | 0.00 | 77 | 1015.1 |
| 20260507040601 | 55 | 37 | 2.6 | 5.2 | 0.00 | 0.00 | 0.00 | 77 | 1015.2 |
| 20260507040059 | 56 | 31 | 3.5 | 5.2 | 0.00 | 0.00 | 0.00 | 77 | 1015.2 |
| 20260507035852 | 56 | 25 | 3.5 | 5.2 | 0.00 | 0.00 | 0.00 | 76 | 1015.0 |
| 20260507035059 | 56 | 34 | 3.5 | 6.1 | 0.00 | 0.00 | 0.00 | 76 | 1015.1 |
| 20260507034559 | 56 | 68 | 3.5 | 6.1 | 0.00 | 0.00 | 0.00 | 76 | 1015.0 |
| 20260507034058 | 56 | 59 | 2.6 | 4.3 | 0.00 | 0.00 | 0.00 | 76 | 1015.1 |
| 20260507033600 | 56 | 66 | 1.7 | 4.3 | 0.00 | 0.00 | 0.00 | 76 | 1015.1 |
| 20260507033356 | 56 | 61 | 3.5 | 4.3 | 0.00 | 0.00 | 0.00 | 76 | 1015.0 |
| 20260507032559 | 56 | 66 | 3.5 | 5.2 | 0.00 | 0.00 | 0.00 | 76 | 1015.0 |
| 20260507032340 | 56 | 66 | 3.5 | 5.2 | 0.00 | 0.00 | 0.00 | 76 | 1015.0 |
| 20260507031600 | 56 | 41 | 2.6 | 5.2 | 0.00 | 0.00 | 0.00 | 76 | 1014.7 |
| 20260507031059 | 56 | 58 | 3.5 | 4.3 | 0.00 | 0.00 | 0.00 | 76 | 1014.8 |
| 20260507030559 | 56 | 65 | 2.6 | 5.2 | 0.00 | 0.00 | 0.00 | 76 | 1014.7 |
| 20260507030358 | 56 | 63 | 3.5 | 5.2 | 0.00 | 0.00 | 0.00 | 75 | 1014.6 |
| 20260507025559 | 57 | 69 | 2.6 | 4.3 | 0.00 | 0.00 | 0.00 | 75 | 1014.5 |
| 20260507025058 | 57 | 69 | 2.6 | 4.3 | 0.00 | 0.00 | 0.00 | 75 | 1014.6 |
| 20260507024925 | 57 | 63 | 1.7 | 4.3 | 0.00 | 0.00 | 0.00 | 74 | 1014.5 |
| 20260507024135 | 57 | 61 | 1.7 | 4.3 | 0.00 | 0.00 | 0.00 | 74 | 1014.4 |
| 20260507023057 | 58 | 56 | 3.5 | 5.2 | 0.00 | 0.00 | 0.00 | 73 | 1014.4 |
| 20260507022557 | 58 | 39 | 3.5 | 5.2 | 0.00 | 0.00 | 0.00 | 72 | 1014.3 |
| 20260507022057 | 0 | 65 | 2.6 | 4.3 | 0.00 | 0.00 | 0.00 | 1014.2 | |
| 20260507021841 | 0 | 75 | 2.6 | 4.3 | 0.00 | 0.00 | 0.00 | 1014.1 | |
| 20260507021059 | 59 | 55 | 1.7 | 5.2 | 0.00 | 0.00 | 0.00 | 70 | 1014.2 |
| 20260507020557 | 59 | 49 | 2.6 | 5.2 | 0.00 | 0.00 | 0.00 | 70 | 1014.2 |
| 20260507020056 | 59 | 73 | 2.6 | 4.3 | 0.00 | 0.00 | 0.00 | 69 | 1014.1 |
| 20260507015558 | 59 | 59 | 3.5 | 3.5 | 0.00 | 0.00 | 0.00 | 68 | 1014.1 |
| 20260507015056 | 60 | 55 | 2.6 | 4.3 | 0.00 | 0.00 | 0.00 | 68 | 1014.0 |
| 20260507014601 | 60 | 55 | 2.6 | 4.3 | 0.00 | 0.00 | 0.00 | 67 | 1013.9 |
| 20260507014055 | 60 | 32 | 2.6 | 6.1 | 0.00 | 0.00 | 0.00 | 67 | 1013.8 |
| 20260507013556 | 60 | 62 | 5.2 | 6.1 | 0.00 | 0.00 | 0.00 | 66 | 1013.7 |
| 20260507013056 | 61 | 49 | 3.5 | 4.3 | 0.00 | 0.00 | 0.00 | 66 | 1013.7 |
| 20260507012555 | 61 | 76 | 3.5 | 6.1 | 0.00 | 0.00 | 0.00 | 65 | 1013.7 |
| 20260507012059 | 61 | 66 | 4.3 | 8.7 | 0.00 | 0.00 | 0.00 | 65 | 1013.7 |
| 20260507011555 | 62 | 76 | 4.3 | 8.7 | 0.00 | 0.00 | 0.00 | 64 | 1013.4 |
| 20260507011055 | 62 | 59 | 4.3 | 6.1 | 0.00 | 0.00 | 0.00 | 64 | 1013.5 |
| 20260507010849 | 62 | 73 | 4.3 | 8.7 | 0.00 | 0.00 | 0.00 | 63 | 1013.5 |
| 20260507010350 | 62 | 41 | 6.1 | 8.7 | 0.00 | 0.00 | 0.00 | 63 | 1013.5 |
| 20260507005554 | 63 | 37 | 6.1 | 10.4 | 0.00 | 0.00 | 0.00 | 62 | 1013.5 |
| 20260507005054 | 63 | 41 | 7.0 | 10.4 | 0.00 | 0.00 | 0.00 | 62 | 1013.5 |
| 20260507004555 | 63 | 41 | 5.2 | 9.6 | 0.00 | 0.00 | 0.00 | 61 | 1013.4 |
| 20260507004119 | 0 | 37 | 7.0 | 9.6 | 0.00 | 0.00 | 0.00 | 1013.4 | |
| 20260507003054 | 64 | 11 | 6.1 | 11.3 | 0.00 | 0.00 | 0.00 | 61 | 1013.4 |
| 20260507002840 | 64 | 54 | 7.0 | 11.3 | 0.00 | 0.00 | 0.00 | 61 | 1013.3 |
| 20260507002053 | 64 | 44 | 7.8 | 12.2 | 0.00 | 0.00 | 0.00 | 60 | 1013.2 |
| 20260507001555 | 64 | 48 | 7.8 | 12.2 | 0.00 | 0.00 | 0.00 | 61 | 1013.2 |
| 20260507001055 | 64 | 52 | 7.8 | 13.0 | 0.00 | 0.00 | 0.00 | 61 | 1012.9 |
| 20260507000553 | 64 | 51 | 7.8 | 13.9 | 0.00 | 0.00 | 0.00 | 61 | 1013.1 |
| 20260507000053 | 64 | 21 | 9.6 | 13.9 | 0.00 | 0.00 | 0.00 | 61 | 1013.1 |
| 20260506235556 | 65 | 38 | 6.1 | 14.8 | 0.00 | 0.00 | 0.00 | 60 | 1012.9 |
| 20260506235054 | 65 | 41 | 9.6 | 14.8 | 0.00 | 0.00 | 0.00 | 59 | 1012.8 |
| 20260506234629 | 65 | 56 | 10.4 | 14.8 | 0.00 | 0.00 | 0.00 | 59 | 1012.9 |
| 20260506233552 | 67 | 20 | 9.6 | 13.9 | 0.00 | 0.00 | 0.00 | 60 | 1012.8 |
| 20260506233053 | 67 | 25 | 7.8 | 11.3 | 0.00 | 0.00 | 0.00 | 57 | 1012.8 |
| 20260506232553 | 67 | 51 | 5.2 | 10.4 | 0.00 | 0.00 | 0.00 | 57 | 1012.7 |
| 20260506232346 | 67 | 4 | 6.1 | 10.4 | 0.00 | 0.00 | 0.00 | 56 | 1012.6 |
| 20260506231553 | 67 | 0 | 7.0 | 12.2 | 0.00 | 0.00 | 0.00 | 56 | 1012.6 |
| 20260506231054 | 67 | 353 | 7.0 | 13.0 | 0.00 | 0.00 | 0.00 | 56 | 1012.5 |
| 20260506230557 | 67 | 0 | 8.7 | 13.0 | 0.00 | 0.00 | 0.00 | 55 | 1012.5 |
| 20260506230347 | 67 | 0 | 7.8 | 11.3 | 0.00 | 0.00 | 0.00 | 55 | 1012.4 |
| 20260506225552 | 67 | 13 | 7.0 | 13.0 | 0.00 | 0.00 | 0.00 | 55 | 1012.4 |
| 20260506225051 | 68 | 341 | 10.4 | 13.0 | 0.00 | 0.00 | 0.00 | 54 | 1012.3 |
| 20260506224552 | 68 | 0 | 7.8 | 12.2 | 0.00 | 0.00 | 0.00 | 54 | 1012.2 |
| 20260506224052 | 68 | 354 | 7.8 | 13.9 | 0.00 | 0.00 | 0.00 | 52 | 1012.1 |
| 20260506223553 | 69 | 330 | 7.0 | 13.9 | 0.00 | 0.00 | 0.00 | 53 | 1012.1 |
| 20260506223051 | 69 | 0 | 7.8 | 11.3 | 0.00 | 0.00 | 0.00 | 53 | 1012.0 |
| 20260506222552 | 69 | 0 | 6.1 | 10.4 | 0.00 | 0.00 | 0.00 | 51 | 1011.9 |
| 20260506222052 | 0 | 28 | 7.0 | 10.4 | 0.00 | 0.00 | 0.00 | 1012.0 | |
| 20260506221836 | 70 | 302 | 5.2 | 11.3 | 0.00 | 0.00 | 0.00 | 51 | 1012.0 |
| 20260506221344 | 70 | 0 | 6.1 | 12.2 | 0.00 | 0.00 | 0.00 | 51 | 1011.8 |
| 20260506220550 | 70 | 351 | 8.7 | 12.2 | 0.00 | 0.00 | 0.00 | 51 | 1011.9 |
| 20260506220051 | 71 | 345 | 6.1 | 12.2 | 0.00 | 0.00 | 0.00 | 52 | 1012.0 |
| 20260506215550 | 71 | 331 | 8.7 | 12.2 | 0.00 | 0.00 | 0.00 | 52 | 1011.9 |
| 20260506215051 | 71 | 341 | 7.0 | 10.4 | 0.00 | 0.00 | 0.00 | 52 | 1011.9 |
| 20260506214551 | 71 | 347 | 7.0 | 13.0 | 0.00 | 0.00 | 0.00 | 50 | 1011.9 |
| 20260506214342 | 71 | 345 | 8.7 | 13.0 | 0.00 | 0.00 | 0.00 | 50 | 1011.8 |
| 20260506213550 | 72 | 0 | 7.0 | 9.6 | 0.00 | 0.00 | 0.00 | 51 | 1011.7 |
| 20260506213050 | 71 | 0 | 5.2 | 8.7 | 0.00 | 0.00 | 0.00 | 51 | 1011.9 |
| 20260506212550 | 71 | 354 | 3.5 | 7.8 | 0.00 | 0.00 | 0.00 | 51 | 1011.9 |
| 20260506212049 | 71 | 13 | 4.3 | 7.8 | 0.00 | 0.00 | 0.00 | 53 | 1011.9 |
| 20260506211550 | 71 | 7 | 2.6 | 7.8 | 0.00 | 0.00 | 0.00 | 50 | 1012.0 |
| 20260506211345 | 71 | 14 | 4.3 | 9.6 | 0.00 | 0.00 | 0.00 | 53 | 1012.0 |
| 20260506210618 | 71 | 32 | 6.1 | 9.6 | 0.00 | 0.00 | 0.00 | 53 | 1012.1 |
| 20260506205839 | 71 | 49 | 1.7 | 8.7 | 0.00 | 0.00 | 0.00 | 52 | 1012.2 |
| 20260506205048 | 71 | 6 | 5.2 | 8.7 | 0.00 | 0.00 | 0.00 | 53 | 1012.2 |
| 20260506204547 | 71 | 1 | 1.7 | 8.7 | 0.00 | 0.00 | 0.00 | 52 | 1012.2 |
| 20260506204048 | 71 | 37 | 4.3 | 8.7 | 0.00 | 0.00 | 0.00 | 53 | 1012.2 |
| 20260506203550 | 70 | 331 | 1.7 | 11.3 | 0.00 | 0.00 | 0.00 | 55 | 1012.2 |
| 20260506203050 | 70 | 58 | 7.0 | 11.3 | 0.00 | 0.00 | 0.00 | 54 | 1012.3 |
| 20260506202841 | 70 | 292 | 1.7 | 8.7 | 0.00 | 0.00 | 0.00 | 56 | 1012.3 |
| 20260506202050 | 70 | 348 | 4.3 | 8.7 | 0.00 | 0.00 | 0.00 | 55 | 1012.5 |
| 20260506201835 | 69 | 14 | 4.3 | 10.4 | 0.00 | 0.00 | 0.00 | 54 | 1012.6 |
| 20260506201048 | 70 | 0 | 5.2 | 10.4 | 0.00 | 0.00 | 0.00 | 56 | 1012.6 |
| 20260506200843 | 69 | 338 | 5.2 | 9.6 | 0.00 | 0.00 | 0.00 | 59 | 1012.6 |
| 20260506200048 | 68 | 0 | 3.5 | 9.6 | 0.00 | 0.00 | 0.00 | 56 | 1012.6 |
| 20260506195844 | 69 | 28 | 4.3 | 11.3 | 0.00 | 0.00 | 0.00 | 56 | 1012.6 |
| 20260506195049 | 69 | 329 | 6.1 | 11.3 | 0.00 | 0.00 | 0.00 | 55 | 1012.6 |
| 20260506194547 | 68 | 350 | 5.2 | 9.6 | 0.00 | 0.00 | 0.00 | 59 | 1012.8 |
| 20260506194047 | 68 | 32 | 5.2 | 6.1 | 0.00 | 0.00 | 0.00 | 61 | 1012.7 |
| 20260506193549 | 67 | 320 | 0.9 | 9.6 | 0.00 | 0.00 | 0.00 | 59 | 1012.7 |
| 20260506193048 | 67 | 0 | 6.1 | 9.6 | 0.00 | 0.00 | 0.00 | 59 | 1012.8 |
| 20260506192548 | 67 | 320 | 5.2 | 9.6 | 0.00 | 0.00 | 0.00 | 59 | 1012.8 |
| 20260506192046 | 67 | 345 | 2.6 | 9.6 | 0.00 | 0.00 | 0.00 | 59 | 1012.9 |
| 20260506191548 | 66 | 355 | 5.2 | 9.6 | 0.00 | 0.00 | 0.00 | 65 | 1013.1 |
| 20260506191046 | 66 | 289 | 1.7 | 7.8 | 0.00 | 0.00 | 0.00 | 65 | 1013.1 |
| 20260506190548 | 65 | 296 | 4.3 | 8.7 | 0.00 | 0.00 | 0.00 | 61 | 1013.3 |
| 20260506190046 | 65 | 341 | 3.5 | 10.4 | 0.00 | 0.00 | 0.00 | 63 | 1013.3 |
| 20260506185545 | 64 | 4 | 4.3 | 10.4 | 0.00 | 0.00 | 0.00 | 63 | 1013.4 |
| 20260506185047 | 64 | 34 | 5.2 | 10.4 | 0.00 | 0.00 | 0.00 | 63 | 1013.5 |
| 20260506184544 | 63 | 8 | 5.2 | 10.4 | 0.00 | 0.00 | 0.00 | 63 | 1013.6 |
| 20260506184045 | 63 | 28 | 4.3 | 10.4 | 0.00 | 0.00 | 0.00 | 63 | 1013.6 |
| 20260506183545 | 63 | 333 | 5.2 | 9.6 | 0.00 | 0.00 | 0.00 | 65 | 1013.6 |
| 20260506183045 | 62 | 0 | 6.1 | 10.4 | 0.00 | 0.00 | 0.00 | 67 | 1013.8 |
| 20260506182546 | 62 | 20 | 5.2 | 10.4 | 0.00 | 0.00 | 0.00 | 67 | 1013.8 |
| 20260506182338 | 62 | 25 | 6.1 | 10.4 | 0.00 | 0.00 | 0.00 | 67 | 1013.8 |
| 20260506181545 | 62 | 30 | 5.2 | 10.4 | 0.00 | 0.00 | 0.00 | 65 | 1014.1 |
| 20260506181046 | 62 | 0 | 5.2 | 12.2 | 0.00 | 0.00 | 0.00 | 66 | 1014.1 |
| 20260506180545 | 61 | 0 | 8.7 | 12.2 | 0.00 | 0.00 | 0.00 | 68 | 1014.1 |
| 20260506180332 | 0 | 17 | 3.5 | 11.3 | 0.00 | 0.00 | 0.00 | 1014.2 | |
| 20260506175544 | 60 | 327 | 7.0 | 11.3 | 0.00 | 0.00 | 0.00 | 70 | 1014.1 |
| 20260506175044 | 60 | 24 | 4.3 | 8.7 | 0.00 | 0.00 | 0.00 | 70 | 1014.2 |
| 20260506174544 | 60 | 3 | 4.3 | 8.7 | 0.00 | 0.00 | 0.00 | 68 | 1014.2 |
| 20260506174120 | 60 | 0 | 6.1 | 8.7 | 0.00 | 0.00 | 0.00 | 68 | 1014.2 |
| 20260506173338 | 59 | 305 | 2.6 | 9.6 | 0.00 | 0.00 | 0.00 | 72 | 1014.4 |
| 20260506172546 | 57 | 47 | 5.2 | 11.3 | 0.00 | 0.00 | 0.00 | 74 | 1014.2 |
| 20260506172045 | 57 | 317 | 6.1 | 11.3 | 0.00 | 0.00 | 0.00 | 74 | 1014.2 |
| 20260506171544 | 57 | 0 | 4.3 | 10.4 | 0.00 | 0.00 | 0.00 | 74 | 1014.1 |
| 20260506171044 | 56 | 31 | 6.1 | 12.2 | 0.00 | 0.00 | 0.00 | 75 | 1014.3 |
| 20260506170544 | 56 | 14 | 8.7 | 13.0 | 0.00 | 0.00 | 0.00 | 75 | 1014.3 |
| 20260506170043 | 55 | 20 | 6.1 | 13.0 | 0.00 | 0.00 | 0.00 | 76 | 1014.2 |
| 20260506165543 | 55 | 21 | 5.2 | 9.6 | 0.00 | 0.00 | 0.00 | 77 | 1014.4 |
| 20260506165044 | 54 | 6 | 4.3 | 10.4 | 0.00 | 0.00 | 0.00 | 77 | 1014.6 |
| 20260506164545 | 54 | 0 | 7.0 | 10.4 | 0.00 | 0.00 | 0.00 | 78 | 1014.5 |
| 20260506164044 | 54 | 0 | 6.1 | 13.9 | 0.00 | 0.00 | 0.00 | 78 | 1014.5 |
| 20260506163544 | 54 | 355 | 7.0 | 13.9 | 0.00 | 0.00 | 0.00 | 78 | 1014.4 |
| 20260506163042 | 53 | 0 | 7.0 | 10.4 | 0.00 | 0.00 | 0.00 | 79 | 1014.4 |
| 20260506162544 | 53 | 0 | 8.7 | 13.0 | 0.00 | 0.00 | 0.00 | 79 | 1014.3 |
| 20260506162043 | 53 | 0 | 8.7 | 13.0 | 0.00 | 0.00 | 0.00 | 80 | 1014.3 |
| 20260506161542 | 53 | 321 | 7.8 | 15.6 | 0.00 | 0.00 | 0.00 | 80 | 1014.1 |
| 20260506161044 | 53 | 355 | 7.8 | 15.6 | 0.00 | 0.00 | 0.00 | 79 | 1014.0 |
| 20260506160830 | 53 | 357 | 8.7 | 13.9 | 0.00 | 0.00 | 0.00 | 80 | 1014.1 |
| 20260506160042 | 53 | 341 | 8.7 | 13.0 | 0.00 | 0.00 | 0.00 | 81 | 1014.0 |
| 20260506155543 | 52 | 28 | 8.7 | 13.0 | 0.00 | 0.00 | 0.00 | 82 | 1014.0 |
| 20260506155042 | 52 | 338 | 8.7 | 12.2 | 0.00 | 0.00 | 0.00 | 83 | 1013.9 |
| 20260506154541 | 52 | 354 | 7.0 | 12.2 | 0.00 | 0.00 | 0.00 | 83 | 1013.8 |
| 20260506154042 | 0 | 0 | 7.8 | 12.2 | 0.00 | 0.00 | 0.00 | 1013.8 | |
| 20260506153541 | 52 | 358 | 7.0 | 12.2 | 0.00 | 0.00 | 0.00 | 83 | 1013.8 |
| 20260506153042 | 52 | 0 | 6.1 | 11.3 | 0.00 | 0.00 | 0.00 | 83 | 1013.7 |
| 20260506152541 | 52 | 0 | 7.8 | 13.0 | 0.00 | 0.00 | 0.00 | 82 | 1013.8 |
| 20260506152042 | 52 | 354 | 9.6 | 13.0 | 0.00 | 0.00 | 0.00 | 83 | 1013.8 |
| 20260506151541 | 51 | 358 | 7.8 | 13.0 | 0.00 | 0.00 | 0.00 | 83 | 1013.9 |
| 20260506151041 | 51 | 344 | 6.1 | 13.9 | 0.00 | 0.00 | 0.00 | 82 | 1013.8 |
| 20260506150543 | 51 | 0 | 7.8 | 13.9 | 0.00 | 0.00 | 0.00 | 82 | 1013.7 |
| 20260506150040 | 51 | 20 | 7.8 | 15.6 | 0.00 | 0.00 | 0.00 | 82 | 1013.6 |
| 20260506145540 | 51 | 353 | 11.3 | 18.2 | 0.00 | 0.00 | 0.00 | 82 | 1013.5 |
| 20260506145040 | 51 | 0 | 10.4 | 18.2 | 0.00 | 0.00 | 0.00 | 83 | 1013.5 |
| 20260506144541 | 51 | 347 | 8.7 | 13.9 | 0.00 | 0.00 | 0.00 | 83 | 1013.5 |
| 20260506144039 | 51 | 25 | 10.4 | 13.9 | 0.00 | 0.00 | 0.00 | 83 | 1013.6 |
| 20260506143540 | 51 | 0 | 9.6 | 12.2 | 0.00 | 0.00 | 0.00 | 83 | 1013.6 |
| 20260506143040 | 51 | 17 | 7.8 | 12.2 | 0.00 | 0.00 | 0.00 | 84 | 1013.8 |
| 20260506142541 | 51 | 351 | 7.8 | 12.2 | 0.00 | 0.00 | 0.00 | 84 | 1013.7 |
| 20260506142040 | 51 | 0 | 4.3 | 12.2 | 0.00 | 0.00 | 0.00 | 84 | 1013.8 |
| 20260506141540 | 51 | 23 | 7.8 | 13.0 | 0.00 | 0.00 | 0.00 | 84 | 1013.8 |
| 20260506141039 | 51 | 27 | 7.8 | 13.0 | 0.00 | 0.00 | 0.00 | 84 | 1013.8 |
| 20260506140833 | 51 | 13 | 5.2 | 11.3 | 0.00 | 0.00 | 0.00 | 83 | 1013.7 |
| 20260506140038 | 51 | 45 | 7.8 | 12.2 | 0.00 | 0.00 | 0.00 | 83 | 1013.5 |
| 20260506135538 | 51 | 355 | 7.8 | 12.2 | 0.00 | 0.00 | 0.00 | 84 | 1013.8 |
| 20260506135329 | 51 | 25 | 5.2 | 8.7 | 0.00 | 0.00 | 0.00 | 84 | 1014.1 |
| 20260506134538 | 51 | 11 | 3.5 | 7.8 | 0.00 | 0.00 | 0.00 | 84 | 1014.3 |
| 20260506134038 | 51 | 7 | 3.5 | 8.7 | 0.00 | 0.00 | 0.00 | 84 | 1014.0 |
| 20260506133538 | 51 | 6 | 5.2 | 8.7 | 0.00 | 0.00 | 0.00 | 84 | 1014.0 |
| 20260506133331 | 51 | 0 | 5.2 | 9.6 | 0.00 | 0.00 | 0.00 | 84 | 1013.8 |
| 20260506132538 | 51 | 0 | 5.2 | 10.4 | 0.00 | 0.00 | 0.00 | 84 | 1013.7 |
| 20260506132332 | 51 | 0 | 6.1 | 10.4 | 0.00 | 0.00 | 0.00 | 84 | 1013.5 |
| 20260506131537 | 51 | 0 | 6.1 | 10.4 | 0.00 | 0.00 | 0.00 | 84 | 1013.5 |
| 20260506131039 | 0 | 23 | 6.1 | 10.4 | 0.00 | 0.00 | 0.00 | 1013.4 | |
| 20260506130540 | 51 | 31 | 5.2 | 10.4 | 0.00 | 0.00 | 0.00 | 84 | 1013.6 |
| 20260506130037 | 51 | 39 | 4.3 | 10.4 | 0.00 | 0.00 | 0.00 | 84 | 1013.8 |
| 20260506125538 | 51 | 11 | 5.2 | 8.7 | 0.00 | 0.00 | 0.00 | 84 | 1013.1 |
| 20260506125037 | 51 | 8 | 5.2 | 9.6 | 0.00 | 0.00 | 0.00 | 84 | 1012.8 |
| 20260506124537 | 51 | 355 | 6.1 | 10.4 | 0.00 | 0.00 | 0.00 | 84 | 1013.1 |
| 20260506124333 | 51 | 20 | 7.0 | 10.4 | 0.00 | 0.00 | 0.00 | 84 | 1012.9 |
| 20260506123537 | 51 | 23 | 4.3 | 10.4 | 0.00 | 0.00 | 0.00 | 84 | 1013.2 |
| 20260506123036 | 51 | 30 | 6.1 | 10.4 | 0.00 | 0.00 | 0.00 | 84 | 1013.2 |
| 20260506122537 | 51 | 21 | 5.2 | 7.8 | 0.00 | 0.00 | 0.00 | 84 | 1012.9 |
| 20260506122036 | 51 | 10 | 4.3 | 10.4 | 0.00 | 0.00 | 0.00 | 84 | 1012.7 |
| 20260506121536 | 51 | 23 | 5.2 | 10.4 | 0.00 | 0.00 | 0.00 | 83 | 1012.7 |
| 20260506121037 | 51 | 23 | 7.8 | 10.4 | 0.00 | 0.00 | 0.00 | 83 | 1012.4 |
| 20260506120537 | 51 | 30 | 4.3 | 10.4 | 0.00 | 0.00 | 0.00 | 83 | 1012.3 |
| 20260506120035 | 51 | 28 | 4.3 | 10.4 | 0.00 | 0.00 | 0.00 | 83 | 1012.0 |
| 20260506115536 | 51 | 14 | 4.3 | 11.3 | 0.00 | 0.00 | 0.00 | 83 | 1012.0 |
| 20260506115334 | 51 | 0 | 6.1 | 11.3 | 0.00 | 0.00 | 0.00 | 84 | 1011.6 |
| 20260506114537 | 51 | 20 | 5.2 | 12.2 | 0.00 | 0.00 | 0.00 | 84 | 1011.4 |
| 20260506114035 | 51 | 20 | 6.1 | 12.2 | 0.00 | 0.00 | 0.00 | 84 | 1011.0 |
| 20260506113535 | 51 | 42 | 6.1 | 11.3 | 0.00 | 0.00 | 0.00 | 84 | 1011.3 |
| 20260506113035 | 51 | 0 | 6.1 | 11.3 | 0.00 | 0.00 | 0.00 | 85 | 1011.2 |
| 20260506112535 | 51 | 13 | 6.1 | 10.4 | 0.00 | 0.00 | 0.00 | 85 | 1011.4 |
| 20260506112035 | 51 | 35 | 6.1 | 10.4 | 0.00 | 0.00 | 0.00 | 85 | 1011.5 |
| 20260506111535 | 51 | 27 | 4.3 | 8.7 | 0.00 | 0.00 | 0.00 | 85 | 1011.5 |
| 20260506111328 | 51 | 30 | 3.5 | 9.6 | 0.00 | 0.00 | 0.00 | 85 | 1011.4 |
| 20260506110536 | 51 | 11 | 5.2 | 9.6 | 0.00 | 0.00 | 0.00 | 85 | 1011.3 |
| 20260506110034 | 51 | 3 | 5.2 | 9.6 | 0.00 | 0.00 | 0.00 | 85 | 1011.2 |
| 20260506105534 | 51 | 21 | 5.2 | 7.8 | 0.00 | 0.00 | 0.00 | 85 | 1011.0 |
| 20260506105034 | 51 | 30 | 4.3 | 7.8 | 0.00 | 0.00 | 0.00 | 85 | 1011.2 |
| 20260506104534 | 51 | 28 | 4.3 | 9.6 | 0.00 | 0.00 | 0.00 | 85 | 1011.3 |
| 20260506104034 | 51 | 28 | 5.2 | 9.6 | 0.00 | 0.00 | 0.00 | 86 | 1011.2 |
| 20260506103534 | 51 | 358 | 5.2 | 8.7 | 0.00 | 0.00 | 0.00 | 86 | 1011.2 |
| 20260506103034 | 51 | 35 | 4.3 | 7.8 | 0.00 | 0.00 | 0.00 | 86 | 1011.0 |
| 20260506102533 | 51 | 16 | 5.2 | 7.8 | 0.00 | 0.00 | 0.00 | 87 | 1010.9 |
| 20260506102034 | 51 | 345 | 4.3 | 8.7 | 0.00 | 0.00 | 0.00 | 87 | 1011.0 |
| 20260506101533 | 51 | 10 | 3.5 | 9.6 | 0.00 | 0.00 | 0.00 | 87 | 1011.2 |
| 20260506101033 | 51 | 31 | 3.5 | 9.6 | 0.00 | 0.00 | 0.00 | 87 | 1011.2 |
| 20260506100533 | 51 | 340 | 2.6 | 4.3 | 0.00 | 0.00 | 0.00 | 87 | 1010.9 |
| 20260506100032 | 51 | 0 | 1.7 | 4.3 | 0.00 | 0.00 | 0.00 | 87 | 1010.8 |
| 20260506095533 | 51 | 0 | 2.6 | 5.2 | 0.00 | 0.00 | 0.00 | 87 | 1010.8 |
| 20260506095032 | 51 | 0 | 3.5 | 5.2 | 0.00 | 0.00 | 0.00 | 87 | 1010.4 |
| 20260506094824 | 51 | 0 | 2.6 | 6.1 | 0.00 | 0.00 | 0.00 | 86 | 1010.2 |
| 20260506094032 | 51 | 353 | 4.3 | 6.1 | 0.00 | 0.00 | 0.00 | 86 | 1010.1 |
| 20260506093532 | 51 | 20 | 3.5 | 6.1 | 0.00 | 0.00 | 0.00 | 86 | 1010.1 |
| 20260506093032 | 51 | 6 | 2.6 | 6.1 | 0.00 | 0.00 | 0.00 | 86 | 1010.1 |
| 20260506092532 | 51 | 358 | 3.5 | 5.2 | 0.00 | 0.00 | 0.00 | 86 | 1010.2 |
| 20260506092033 | 51 | 353 | 3.5 | 4.3 | 0.00 | 0.00 | 0.00 | 86 | 1010.2 |
| 20260506091532 | 51 | 343 | 2.6 | 5.2 | 0.00 | 0.00 | 0.00 | 86 | 1010.3 |
| 20260506091033 | 52 | 0 | 2.6 | 5.2 | 0.00 | 0.00 | 0.00 | 86 | 1010.2 |
| 20260506090531 | 52 | 0 | 1.7 | 4.3 | 0.00 | 0.00 | 0.00 | 85 | 1010.2 |
| 20260506090031 | 52 | 0 | 1.7 | 5.2 | 0.00 | 0.00 | 0.00 | 85 | 1010.2 |
| 20260506085824 | 52 | 351 | 3.5 | 5.2 | 0.00 | 0.00 | 0.00 | 85 | 1010.2 |
| 20260506085325 | 52 | 358 | 3.5 | 5.2 | 0.00 | 0.00 | 0.00 | 85 | 1010.3 |
| 20260506084531 | 52 | 0 | 1.7 | 3.5 | 0.00 | 0.00 | 0.00 | 85 | 1010.0 |
| 20260506084033 | 52 | 21 | 0.9 | 4.3 | 0.00 | 0.00 | 0.00 | 85 | 1010.1 |
| 20260506083814 | 52 | 21 | 0.9 | 5.2 | 0.00 | 0.00 | 0.00 | 85 | 1009.9 |
| 20260506083031 | 52 | 49 | 2.6 | 6.1 | 0.00 | 0.00 | 0.00 | 85 | 1010.0 |
| 20260506082532 | 52 | 0 | 4.3 | 6.1 | 0.00 | 0.00 | 0.00 | 85 | 1009.9 |
| 20260506082034 | 52 | 347 | 2.6 | 4.3 | 0.00 | 0.00 | 0.00 | 85 | 1009.9 |
| 20260506081530 | 0 | 23 | 2.6 | 7.8 | 0.00 | 0.00 | 0.00 | 1010.1 | |
| 20260506081031 | 0 | 355 | 3.5 | 7.8 | 0.00 | 0.00 | 0.00 | 1010.0 | |
| 20260506080531 | 53 | 348 | 4.3 | 7.8 | 0.00 | 0.00 | 0.00 | 84 | 1010.1 |
| 20260506073528 | 53 | 13 | 1.7 | 5.2 | 0.00 | 0.00 | 0.00 | 84 | 1010.1 |
| 20260506073027 | 53 | 0 | 1.7 | 5.2 | 0.00 | 0.00 | 0.00 | 84 | 1010.1 |